Location: Montbazon
(47.2835°N, 0.6999°E)
Time: 07:02:29
(UTC+00:00)

Lacrosse 5 rocket - Pass Details

Date: 08 November 2025
Orbit: 406 x 491 km, 57.0° (Epoch: 17 December)

Event Time Altitude Azimuth Distance (km) Brightness Sun altitude
Exits shadow 03:57:08 10° 39° (NE) 1,502 4.1 -29.7°
Drops below altitude 10° 03:57:12 10° 40° (NE) 1,529 4.1 -29.6°
Enters shadow 04:54:59 -66° 249° (WSW) 12,207 8.1 -19.9°
